Wind_Speed
60 59 59 59 59 58 58 57 57 56 54 54 53 51 50 49 47 45 44 42 41 40 40 40 39 36 34 31 30 32 33 35 41 42 43 44 44 47 50 49 48 48 48 48 46 45 43 42 41 41 39 38 37 36 34 33 32 30 29 29 28 27 26 26 25 24 23 21 18 16 15 15 14 13 13 12 12 10 9 8 8 7 7 6 5 5 5 5
60 59 59 58 58 57 55 56 56 54 53 54 53 52 50 49 47 45 44 43 42 41 41 41 40 38 36 33 31 32 32 31 35 41 44 45 44 47 51 51 50 50 49 49 47 46 45 43 42 41 39 38 37 36 34 33 31 30 29 29 29 28 27 26 25 25 23 21 20 18 17 15 14 13 13 12 11 10 9 8 8 7 6 6 6 6 6 6
59 60 58 58 57 54 53 54 56 55 53 54 53 51 50 48 47 45 44 44 43 42 41 41 40 39 38 36 33 32 33 32 31 35 42 44 43 47 53 52 51 51 51 50 49 47 46 45 44 42 40 39 37 36 34 33 31 30 30 30 30 29 27 26 26 25 24 22 21 20 18 16 15 14 13 12 11 10 9 8 8 7 7 6 6 6 6 6
60 60 58 58 56 55 56 58 60 58 55 54 52 51 50 48 46 45 44 44 44 43 41 41 40 40 40 38 36 33 33 33 32 33 38 42 42 45 52 51 51 52 52 51 49 48 47 46 45 43 42 40 38 36 35 33 32 31 31 31 30 28 27 26 26 26 24 23 22 21 19 18 16 15 14 12 10 9 9 9 9 8 8 7 7 7 7 7
60 60 59 58 58 58 59 60 62 59 55 54 52 50 49 48 46 45 44 44 43 42 41 41 41 41 41 39 37 35 33 35 36 35 34 39 41 43 50 51 51 52 52 52 50 49 48 46 45 43 42 40 39 37 35 34 32 32 32 32 30 28 27 26 25 24 24 24 23 21 20 19 17 16 14 12 11 11 10 10 9 9 9 8 8 8 8 8
61 60 59 59 58 59 59 60 60 58 55 53 51 49 49 47 46 45 44 44 42 41 40 40 40 40 40 39 38 36 35 35 35 37 34 37 40 41 49 53 54 53 52 52 51 50 49 47 46 44 42 40 39 37 35 34 33 32 32 31 29 28 27 26 25 24 24 24 23 22 21 19 18 16 15 13 12 11 10 10 10 9 10 10 9 9 9 9
61 60 59 59 58 58 58 58 58 57 54 52 50 49 47 46 46 45 44 43 41 40 39 39 39 39 40 39 39 37 36 34 34 37 37 37 39 42 49 54 56 54 52 52 51 50 49 47 46 43 42 40 39 37 36 35 34 33 32 31 29 29 28 27 26 25 24 23 23 23 22 20 18 17 16 14 13 12 11 11 10 10 10 11 10 9 9 9
61 60 59 58 58 58 57 56 56 55 52 50 49 48 46 46 45 44 43 42 40 39 38 37 37 38 39 39 38 37 36 34 34 36 37 38 39 44 50 56 57 54 52 51 50 49 48 47 45 43 42 41 39 38 37 36 35 33 32 31 30 30 29 28 27 26 25 24 23 23 22 21 19 18 16 15 14 13 13 12 11 10 11 11 10 10 10 10
61 60 59 58 57 57 56 55 54 53 51 49 49 47 46 45 44 43 43 41 39 38 37 36 36 37 38 38 37 35 32 32 34 35 36 39 41 46 53 57 57 53 52 51 50 50 49 47 45 44 42 41 40 39 38 37 35 33 32 31 31 30 30 28 27 27 26 24 24 23 22 21 20 18 17 16 15 15 14 12 11 11 11 11 11 11 10 11
61 60 59 58 57 57 56 54 53 52 50 48 47 46 45 44 44 43 42 41 39 37 36 35 35 36 36 35 34 31 30 31 33 33 35 39 43 49 55 58 56 53 52 52 50 49 49 48 47 45 44 43 42 40 39 38 36 34 33 32 31 30 29 28 27 27 25 24 23 22 21 20 19 18 17 17 17 15 13 12 11 11 11 11 11 11 11 11
61 60 59 58 58 56 55 54 52 51 49 47 46 45 44 44 44 44 43 41 38 36 35 34 34 34 33 33 29 26 29 31 31 33 36 40 46 51 56 58 55 52 52 52 50 49 49 49 48 47 45 44 43 42 41 39 36 35 33 32 31 30 29 28 27 26 24 23 22 21 21 20 19 18 18 18 18 15 13 12 12 11 11 12 12 12 12 12
61 60 60 59 58 57 55 54 52 51 49 47 46 44 43 44 45 44 43 41 38 36 34 34 34 33 32 30 27 27 31 32 31 34 38 43 48 52 56 57 54 52 52 51 50 49 49 49 49 48 47 45 44 43 42 40 38 36 34 33 32 30 29 27 26 25 24 23 22 21 21 19 19 19 18 19 18 15 14 13 12 11 11 12 13 13 13 13
61 60 60 59 58 56 55 54 52 51 49 47 45 43 42 43 45 45 44 42 39 36 34 34 34 33 31 29 28 31 33 33 34 37 41 46 49 52 56 55 52 51 51 51 50 50 49 49 49 49 48 46 45 44 42 40 38 37 35 34 32 31 28 26 25 24 23 23 22 22 20 19 20 20 18 19 18 16 15 14 12 11 12 13 13 14 13 13
61 60 60 58 57 56 55 54 52 51 49 47 45 43 42 42 45 46 45 43 40 37 35 35 34 33 32 30 31 33 34 35 36 40 44 47 49 52 54 52 51 51 51 50 50 50 50 49 50 49 48 47 46 45 42 40 39 37 36 34 32 30 27 25 24 24 23 22 22 22 21 20 22 20 18 20 19 17 16 14 12 11 13 14 14 14 14 15
61 60 59 58 56 55 54 53 52 50 49 47 45 43 42 42 45 47 47 44 41 39 37 37 36 35 33 33 34 36 36 37 39 42 46 48 49 50 51 50 50 50 51 50 50 50 50 49 49 49 48 48 46 45 43 41 40 38 37 35 32 29 26 25 24 24 23 22 22 22 21 22 23 20 19 21 20 18 16 14 12 12 13 14 14 14 14 15
61 59 58 56 55 54 53 52 51 49 48 47 45 43 42 42 45 48 48 46 43 40 39 38 37 36 35 35 37 38 37 39 40 43 46 48 49 49 49 49 49 50 50 50 50 50 50 49 49 49 48 48 47 45 43 42 41 40 38 35 31 29 27 27 25 24 23 22 23 22 21 22 24 22 21 21 21 20 17 14 13 13 14 15 14 14 15 15
60 58 56 55 54 53 52 52 51 49 48 47 45 43 42 42 45 49 49 48 45 43 41 40 39 38 38 37 38 39 39 39 41 43 45 47 48 48 48 48 48 49 49 49 49 50 50 49 49 49 48 47 47 46 45 44 43 40 37 34 31 29 28 27 26 25 24 23 23 23 22 22 24 23 22 22 22 21 18 16 15 15 15 15 15 15 15 15
59 57 56 55 54 53 52 51 51 49 48 47 45 44 42 42 46 49 50 49 47 45 45 44 42 42 41 40 40 40 40 40 41 42 43 46 48 48 48 48 47 48 48 48 49 49 49 49 49 49 48 48 47 46 45 43 40 36 34 31 30 29 29 28 27 27 26 25 25 24 22 22 24 25 24 23 23 23 20 17 16 16 16 16 15 16 16 16
58 57 56 55 54 53 51 51 51 49 48 47 46 45 44 43 45 49 51 50 48 46 46 45 44 44 43 42 42 42 42 41 42 43 42 44 47 48 48 48 47 47 48 48 48 48 48 49 49 49 49 48 47 45 43 40 38 35 34 33 32 32 32 31 30 30 28 27 25 24 22 23 25 25 25 25 25 24 21 18 17 18 17 17 17 18 18 18
59 58 57 56 54 52 51 51 51 49 48 47 46 45 45 44 44 48 50 50 48 46 45 44 44 44 43 43 43 43 43 42 42 44 43 43 45 47 48 48 47 47 48 48 47 47 47 48 49 48 46 45 44 43 42 40 39 37 36 35 35 34 33 32 31 30 28 27 25 23 23 24 26 26 27 27 25 24 23 19 19 19 19 18 18 19 19 19
59 58 57 56 54 53 52 51 51 49 48 46 45 43 42 41 40 42 46 49 49 48 47 47 46 46 45 44 44 43 43 43 42 43 44 43 44 46 48 49 48 47 48 48 47 47 47 47 47 45 44 44 44 43 43 41 40 38 37 36 35 35 34 33 32 30 29 27 25 24 24 24 26 28 28 28 25 24 24 22 20 20 20 19 19 20 20 20
60 58 57 56 55 54 53 52 51 49 48 46 45 43 41 39 37 38 44 49 50 50 50 51 50 48 47 45 45 45 44 44 43 43 44 44 44 46 48 49 49 47 46 47 47 47 48 47 45 45 45 45 45 44 44 42 41 39 38 37 36 36 35 34 33 31 29 28 27 26 25 24 26 28 28 27 25 25 26 25 22 21 21 20 20 21 21 22
60 59 57 57 56 55 54 52 51 49 48 46 44 44 42 41 39 40 46 50 51 50 50 51 51 50 49 47 46 46 45 44 44 42 43 44 44 45 46 47 48 47 45 45 45 45 46 45 44 44 44 44 44 44 43 43 41 40 39 38 37 36 36 35 34 32 31 30 28 27 27 25 26 28 28 28 27 26 27 26 24 23 22 22 23 23 23 23
61 60 59 58 57 56 54 53 51 50 48 47 45 44 43 42 42 42 46 51 54 53 51 51 51 50 49 48 47 46 46 45 45 43 42 42 43 43 44 45 46 46 45 44 44 44 44 43 42 42 43 43 44 44 43 43 42 41 40 39 38 38 37 36 35 33 32 31 29 29 28 26 26 28 29 29 28 26 28 28 26 25 24 25 25 25 24 24
62 62 60 59 58 56 55 53 51 50 49 48 47 45 44 43 43 43 46 51 55 56 55 53 53 52 50 49 48 47 46 46 46 45 43 42 42 42 43 44 46 46 45 43 43 44 44 43 42 42 42 43 43 43 42 42 42 41 40 40 39 39 39 37 36 34 33 32 31 30 31 28 26 28 29 30 29 28 29 29 28 27 26 27 27 27 26 26
63 63 62 60 58 56 55 53 52 51 51 50 48 47 46 45 44 44 46 50 55 57 57 56 55 55 53 51 51 49 48 48 47 46 46 45 44 43 43 44 46 47 46 44 44 45 45 43 43 43 43 43 44 43 43 42 42 42 41 41 41 40 39 38 37 36 35 34 33 32 33 30 27 28 30 30 30 30 30 30 30 29 29 28 28 29 28 27
65 64 63 60 58 57 55 53 53 53 51 51 50 49 48 46 46 46 46 50 54 57 58 57 56 56 55 54 53 52 51 50 50 49 48 48 47 45 45 44 45 46 46 46 46 46 45 43 43 43 43 43 43 43 42 42 42 42 41 41 41 41 40 40 39 38 37 36 35 34 34 33 29 28 30 31 31 32 32 30 31 31 31 30 30 30 29 28
65 64 63 61 59 58 55 54 54 53 53 52 52 51 50 48 47 47 48 50 53 55 58 58 56 55 56 56 55 54 53 51 51 51 51 50 49 48 47 45 45 45 45 46 47 46 45 43 43 43 43 43 42 42 42 42 43 42 41 41 42 42 41 41 40 40 39 38 38 35 35 36 33 28 29 31 31 32 32 31 31 33 33 31 30 30 30 29
65 65 63 62 61 60 58 57 56 54 54 54 52 52 51 50 49 49 50 51 50 52 56 58 58 56 56 57 56 55 54 52 52 51 51 51 50 50 49 48 46 46 46 46 46 46 45 44 43 43 43 43 42 42 43 43 44 43 42 42 43 43 43 42 42 41 41 41 39 36 35 37 36 29 28 31 32 31 32 33 33 34 33 32 31 31 31 31
65 65 64 63 62 61 60 60 59 58 56 54 53 51 51 50 51 51 52 52 50 50 53 57 58 58 57 57 57 56 55 54 53 52 52 53 52 51 51 50 49 48 48 48 49 49 47 46 45 45 45 44 44 44 44 45 45 45 44 44 44 45 45 45 45 43 43 43 40 37 36 37 38 32 28 29 31 31 33 34 34 34 33 34 33 33 32 32
66 65 64 63 62 61 61 60 60 60 59 57 55 53 53 51 51 53 53 51 50 50 51 54 58 58 57 56 56 57 57 56 55 55 54 54 54 55 54 54 53 52 51 51 51 51 50 49 48 48 47 46 46 46 46 46 46 46 46 45 45 46 46 46 46 45 45 44 41 39 37 38 40 35 28 28 30 32 33 34 34 34 34 35 35 34 33 33
67 66 65 64 64 63 62 61 59 59 60 59 57 56 55 55 55 55 53 51 51 51 49 50 54 58 58 57 56 56 57 56 55 55 55 55 55 56 56 56 56 56 56 56 55 53 52 51 50 50 50 49 48 48 47 47 47 47 47 47 47 48 48 48 48 47 46 45 42 40 39 40 40 35 31 29 30 32 34 34 34 35 35 35 35 35 34 34
69 67 67 66 66 65 64 63 60 59 58 57 57 57 56 58 59 57 54 53 53 51 48 48 51 56 58 59 58 57 57 56 55 55 55 55 55 54 54 55 55 56 56 55 54 53 52 52 52 51 51 50 49 49 49 48 47 47 47 47 48 48 48 48 48 47 46 44 43 42 41 41 38 36 35 33 32 32 33 33 34 34 35 36 35 35 35 35
72 69 68 68 67 66 65 63 62 61 59 58 57 57 59 60 58 55 55 56 54 51 50 49 50 54 58 59 59 58 57 57 57 56 55 55 55 54 53 52 52 54 56 55 53 51 50 51 51 50 50 49 49 48 47 46 46 46 46 46 46 46 46 46 46 46 45 45 44 43 43 42 39 38 38 37 33 32 32 33 34 35 35 36 36 36 36 36
71 69 69 69 68 67 65 63 62 61 61 59 57 59 62 60 56 55 56 54 53 52 51 50 50 52 57 60 60 59 58 59 58 57 57 56 56 54 53 51 49 50 54 56 57 55 52 51 49 48 47 47 47 47 47 47 47 48 48 48 47 46 46 46 46 46 45 46 46 45 44 42 39 39 40 39 35 32 32 33 34 35 36 36 37 37 36 36
68 68 68 68 68 67 65 64 63 62 62 61 61 64 62 56 52 54 54 53 53 54 54 53 53 53 55 58 60 60 60 59 58 58 58 57 56 55 53 52 50 48 48 52 56 57 56 54 51 48 47 46 46 46 47 48 49 49 49 48 47 46 47 46 46 46 46 47 47 46 44 42 40 40 41 40 38 34 33 34 35 36 37 37 38 37 37 37
67 67 66 67 68 68 66 64 63 64 63 63 65 64 58 54 55 56 55 55 55 56 56 55 54 54 54 56 59 61 61 60 60 60 59 58 58 57 55 53 51 49 47 48 51 53 53 52 51 48 47 47 46 46 47 47 48 48 48 47 45 46 46 46 46 47 47 48 48 46 44 42 41 42 40 40 40 37 34 34 35 36 38 39 39 39 39 38
62 66 67 67 69 69 69 67 66 65 65 66 67 63 57 58 60 58 57 57 56 56 56 55 54 53 52 53 55 59 61 61 62 62 61 60 60 58 56 55 53 51 50 49 50 50 49 49 49 48 47 47 47 47 48 48 48 48 48 47 46 47 46 46 47 47 47 48 48 47 46 44 43 42 40 40 40 38 36 34 35 36 38 39 40 40 40 40
58 61 64 65 67 69 69 69 68 67 68 70 67 62 59 60 59 57 57 56 55 56 56 55 54 52 51 51 52 54 58 60 61 62 62 62 61 59 57 56 55 53 52 52 52 51 50 49 49 49 48 48 48 49 49 49 48 49 49 49 49 49 48 47 47 47 47 47 48 47 47 46 44 42 41 41 41 39 37 35 34 35 37 39 40 40 41 41
58 58 59 61 62 64 66 68 69 69 70 69 64 60 59 59 58 57 57 56 56 56 56 55 54 52 52 51 51 52 54 56 58 59 60 61 61 60 59 57 56 55 54 55 55 54 53 52 52 51 50 50 50 49 49 48 48 48 48 48 49 48 48 47 47 46 46 47 47 48 49 47 44 42 42 41 41 40 39 38 36 35 36 37 39 40 41 41
57 58 58 58 58 59 61 65 68 68 67 64 62 60 59 59 59 58 57 57 57 57 56 55 55 54 53 52 52 52 52 54 55 56 58 59 60 60 60 59 58 56 56 58 58 57 57 55 54 54 53 51 50 49 48 47 47 47 47 47 46 46 45 45 46 46 46 47 48 49 50 47 44 43 43 42 42 42 42 40 38 36 36 36 38 39 40 41
56 58 58 58 59 59 58 60 61 61 62 62 60 59 58 57 58 58 59 59 58 57 57 57 57 56 55 54 53 52 52 53 53 54 56 57 58 59 59 59 59 59 58 58 58 59 60 59 57 56 55 53 51 49 48 48 47 47 47 46 45 46 46 46 47 47 46 48 48 48 50 48 44 43 43 42 43 43 43 41 38 37 36 36 38 39 40 41
59 59 59 60 61 61 60 61 61 59 60 60 59 59 58 58 59 59 60 60 60 59 58 58 58 58 57 57 55 54 54 53 53 53 53 54 56 57 58 59 59 60 61 60 60 60 62 64 63 61 59 57 54 52 50 49 48 48 47 46 46 47 46 47 47 47 47 48 47 48 50 48 43 42 42 43 43 43 42 41 40 39 37 36 37 38 39 40
64 64 63 62 62 62 62 64 64 60 58 60 61 60 60 61 61 62 62 61 61 61 61 60 59 59 58 58 57 56 55 55 55 54 54 54 55 55 57 58 59 60 62 61 61 60 61 65 67 67 66 63 59 56 54 52 51 50 48 47 48 48 47 47 47 47 48 48 46 47 48 45 41 41 43 43 43 42 42 42 41 40 40 39 39 39 40 40
65 66 66 64 63 63 62 63 64 61 59 61 62 62 62 63 63 63 63 63 63 63 62 62 61 60 59 59 58 58 57 56 56 55 55 55 55 55 56 58 59 60 60 61 61 60 61 63 64 67 69 69 66 62 58 55 53 52 50 49 49 48 47 47 46 47 47 46 46 46 44 41 40 41 43 44 43 43 43 42 42 42 42 42 41 42 42 42
63 64 65 65 65 65 63 63 65 65 63 62 62 63 63 64 64 64 65 65 65 64 64 64 63 63 63 62 61 60 59 58 57 57 56 56 56 56 56 57 59 59 60 61 62 62 63 63 64 64 66 66 65 62 58 55 53 52 50 49 48 48 47 47 48 48 45 44 46 45 41 40 41 42 44 44 44 44 43 43 44 44 45 44 44 45 45 44
60 60 61 62 64 65 64 64 67 67 65 64 64 63 62 63 64 65 66 67 67 67 66 66 66 66 65 64 64 63 61 60 59 59 57 57 57 57 57 57 58 59 60 61 62 63 64 65 66 66 65 63 62 62 61 59 57 55 53 52 51 50 49 50 50 48 45 47 48 44 40 42 44 44 45 45 45 44 44 45 46 47 47 47 47 47 47 47
59 60 60 61 62 62 61 62 64 65 66 67 67 66 65 65 64 65 65 66 67 68 68 68 68 67 66 65 64 64 63 62 61 60 59 58 58 58 58 58 59 59 59 60 62 64 65 66 66 66 66 65 63 64 64 62 62 60 58 57 55 54 54 53 53 50 50 52 50 45 43 45 45 45 45 45 46 47 47 48 48 49 50 50 50 50 50 51
57 57 59 62 63 61 59 60 62 64 66 67 67 68 68 67 66 66 65 65 66 67 67 67 66 66 66 65 64 64 64 63 62 61 60 59 59 60 60 60 60 60 60 60 61 63 65 66 66 66 66 66 65 65 65 64 64 63 62 61 59 58 57 56 55 53 53 55 51 47 48 49 46 45 45 47 49 49 49 50 51 51 51 51 52 53 53 54
57 55 55 57 58 57 57 59 61 63 65 65 66 67 69 69 68 67 66 65 64 63 63 63 63 63 63 63 63 62 62 62 61 61 59 58 59 60 60 60 59 60 60 60 59 60 62 63 64 64 66 66 66 65 65 67 67 66 66 64 63 62 60 59 58 56 56 56 52 50 53 51 47 45 46 48 50 50 52 54 54 54 53 53 55 56 57 57
58 55 53 52 52 51 52 54 55 59 63 64 64 64 68 71 70 68 67 66 64 62 61 61 61 61 61 60 60 59 58 59 60 60 60 59 58 58 58 58 57 57 58 58 58 58 58 59 60 61 63 66 66 65 66 67 67 69 70 68 66 65 63 61 59 58 58 56 53 53 55 52 48 47 48 50 51 52 54 55 56 56 56 57 58 58 59 59
56 55 52 50 50 51 52 51 51 53 57 59 60 60 64 68 70 70 68 67 66 64 63 62 61 60 59 59 58 56 57 58 59 59 60 60 60 59 59 59 58 57 57 57 57 57 56 57 57 58 59 62 63 63 64 64 67 70 71 68 66 65 63 62 62 60 60 58 57 57 54 50 50 51 51 52 52 53 55 57 58 59 59 60 60 59 59 60
Wind_Direction
206 206 208 208 208 209 207 207 210 208 203 200 201 201 200 201 201 201 202 203 205 206 205 204 204 206 207 210 213 217 220 222 223 222 220 224 224 217 215 210 197 195 194 191 193 193 193 193 191 190 187 185 183 184 184 184 184 183 184 185 186 185 186 188 187 188 187 184 187 190 195 199 199 198 198 200 204 205 203 204 204 203 205 203 207 215 214 214
206 206 207 207 207 209 208 208 212 212 205 202 201 201 201 200 201 201 201 202 204 206 205 204 205 207 208 210 213 218 220 222 221 222 222 223 222 217 216 211 199 194 193 191 193 193 192 192 191 189 187 184 184 185 184 184 184 183 184 186 187 188 190 190 190 191 189 185 186 189 194 198 200 201 205 207 207 209 210 213 216 215 213 212 214 218 220 221
205 205 206 206 206 207 207 208 212 214 209 204 201 200 201 200 200 201 201 202 203 206 206 205 206 208 210 211 213 218 221 222 221 221 221 220 219 218 216 209 197 192 191 192 192 192 192 191 190 188 186 184 185 185 185 185 184 183 184 187 189 190 192 192 193 194 191 188 188 189 192 196 198 201 208 212 212 214 216 221 224 225 222 217 218 219 222 226
205 205 204 205 204 204 206 207 210 213 212 206 202 200 201 200 200 200 201 203 203 205 206 206 208 209 211 211 213 217 222 223 222 222 221 219 218 219 218 205 194 192 190 192 192 192 192 190 189 187 185 184 185 186 185 185 184 184 186 188 190 191 193 194 196 196 192 191 191 191 192 194 198 201 208 212 215 218 219 225 228 231 232 227 222 222 223 227
204 204 203 205 204 204 207 208 209 212 213 209 203 200 201 200 200 200 202 203 203 206 207 207 209 210 211 212 213 215 222 224 222 223 222 220 218 219 217 203 192 192 191 192 191 191 191 190 190 187 185 184 185 186 185 185 185 186 188 190 191 191 194 196 197 197 195 194 193 194 194 195 198 201 206 209 214 218 221 228 231 237 243 240 230 225 224 226
204 204 203 204 205 206 207 209 211 214 214 211 206 202 201 200 200 200 201 203 203 206 208 208 210 211 212 212 213 214 219 222 221 222 221 219 219 218 215 199 190 192 192 192 191 190 190 190 190 187 185 185 185 185 185 186 187 188 189 190 191 192 194 196 197 198 198 196 195 197 197 199 199 201 204 207 213 218 224 230 234 240 247 249 242 233 228 226
204 203 202 204 205 206 208 210 212 214 213 211 208 204 202 201 201 200 201 203 203 206 208 209 211 212 212 212 213 214 217 219 219 220 218 219 218 216 210 195 188 191 192 192 190 190 190 190 190 187 185 185 185 185 185 187 189 190 190 190 191 192 194 196 197 197 197 197 196 198 200 201 201 203 205 207 213 218 225 230 233 239 245 249 246 236 228 224
204 203 202 203 204 206 208 210 211 213 213 212 210 206 203 202 202 201 202 203 204 206 208 210 211 212 212 212 212 213 214 216 218 217 215 217 217 211 202 191 187 190 192 192 191 190 190 191 190 188 186 185 185 186 186 188 190 191 190 190 191 193 195 197 197 197 196 196 197 199 201 202 203 204 206 209 213 217 224 230 234 240 246 248 244 234 226 221
203 202 202 203 204 205 208 209 210 212 212 212 212 209 205 203 202 203 203 203 204 206 208 210 211 211 212 212 211 212 212 213 215 215 211 212 214 206 195 188 187 189 191 193 192 190 190 191 190 189 187 186 186 186 186 188 190 190 191 191 192 194 196 197 198 199 197 196 198 199 201 203 204 205 206 210 214 217 224 231 238 244 246 245 240 233 226 220
202 202 202 202 204 205 207 209 209 211 212 212 212 211 208 204 203 203 203 204 204 205 207 208 210 212 211 210 210 209 209 211 212 210 207 208 208 201 192 188 188 189 192 193 192 191 190 191 190 190 188 187 187 187 187 189 189 190 191 192 193 195 196 197 199 201 199 198 200 200 202 204 206 206 208 213 217 219 226 234 240 243 243 240 236 232 225 220
202 202 201 202 203 204 206 208 209 210 212 211 212 212 209 206 204 203 203 204 204 205 206 207 209 209 206 207 205 203 207 211 209 205 203 203 201 196 190 189 189 190 192 193 193 192 191 192 191 190 190 188 188 187 189 189 189 191 192 193 195 196 197 198 199 201 201 201 202 203 205 206 207 208 209 217 221 220 227 235 240 240 237 234 232 229 224 221
202 202 201 202 203 204 205 207 208 209 211 211 211 212 210 206 204 202 203 203 203 204 205 206 206 203 202 203 198 198 205 207 205 200 199 199 196 193 190 189 189 190 192 193 193 193 193 193 192 192 191 190 189 189 190 190 190 192 194 195 196 198 198 198 199 202 203 203 205 206 208 209 210 211 211 219 224 222 227 235 241 239 233 232 230 228 225 222
202 202 202 202 202 203 204 205 207 208 210 210 210 210 209 206 203 201 202 202 202 203 203 204 202 198 198 196 194 200 202 201 201 197 196 195 193 191 190 189 190 191 193 193 194 194 195 194 194 194 192 192 191 191 191 191 192 194 196 197 198 199 198 197 199 202 204 204 206 209 210 211 215 214 210 219 226 225 229 237 241 239 232 229 227 227 226 224
202 202 202 202 202 202 203 205 206 208 209 209 209 209 208 205 202 200 200 201 201 201 202 202 197 195 194 191 195 201 198 197 197 193 193 192 190 190 190 190 192 192 193 194 195 195 196 196 196 195 194 194 193 193 193 193 194 196 198 199 199 200 200 198 200 203 205 205 208 211 210 214 221 218 212 219 226 227 231 238 242 238 232 228 226 226 225 226
202 202 202 202 202 201 202 204 206 207 208 209 208 208 208 206 202 200 199 200 199 199 200 198 195 193 191 190 196 199 196 194 194 192 192 191 189 190 191 192 194 194 194 195 196 197 198 198 198 197 196 195 195 195 195 195 196 198 200 201 200 201 201 203 204 206 207 207 210 212 209 215 223 222 217 221 227 229 232 237 239 236 232 228 226 225 225 228
202 202 202 201 201 201 201 203 206 207 208 209 208 208 208 206 203 200 199 199 198 198 198 196 194 192 190 191 197 198 195 192 191 192 192 191 190 191 192 194 195 196 196 197 198 198 199 200 200 199 199 198 198 198 198 198 198 200 202 202 201 202 204 207 208 208 210 210 213 214 210 215 224 224 221 223 228 231 232 235 236 233 230 228 227 226 226 229
202 201 201 201 202 201 200 202 205 207 208 208 208 208 208 206 203 200 199 199 198 198 196 195 193 192 191 193 198 198 194 192 191 192 193 193 192 192 193 194 196 197 198 199 200 200 201 201 201 201 201 201 201 201 201 200 200 201 203 203 203 205 207 210 212 211 213 213 215 216 212 215 224 226 224 223 228 233 231 232 235 232 229 226 226 226 226 227
201 200 200 201 202 201 200 202 205 207 207 208 208 208 208 206 204 201 199 199 199 198 196 194 193 194 194 195 199 198 193 193 193 193 195 196 195 195 195 195 197 199 200 201 201 202 203 202 203 203 203 203 203 203 203 203 203 205 207 207 207 209 210 212 214 215 216 215 217 218 214 216 224 228 227 225 228 233 232 229 232 231 228 226 224 224 223 223
199 200 199 200 201 201 200 201 204 206 207 208 208 208 208 207 204 201 200 200 201 200 199 198 196 197 197 195 198 198 194 194 195 195 196 198 199 198 197 197 198 200 201 202 203 204 205 205 205 204 204 204 205 206 207 207 208 210 210 210 210 211 212 214 217 218 219 218 218 219 217 218 225 228 231 228 227 233 234 229 230 230 229 226 224 223 222 220
198 199 200 200 201 200 200 202 204 206 207 208 209 210 210 210 208 204 202 202 203 202 201 199 197 197 197 196 199 200 196 196 197 197 198 199 201 201 201 200 200 201 201 203 205 206 207 207 206 205 207 209 211 212 212 212 212 212 212 212 212 214 215 216 219 221 222 222 221 222 220 221 226 229 232 232 229 231 236 233 230 231 231 228 226 226 224 222
197 199 200 200 200 199 200 201 203 205 206 207 209 210 212 213 214 212 209 205 204 202 200 198 197 198 197 197 200 202 199 198 198 199 200 200 201 203 204 203 202 203 203 204 206 207 209 209 208 209 211 214 215 215 215 215 215 215 216 216 216 217 218 219 222 224 226 226 225 225 224 222 227 231 233 236 233 230 235 236 232 233 233 231 229 230 227 226
196 198 199 199 199 198 199 201 202 204 205 206 207 208 210 211 213 214 212 208 206 204 200 198 197 198 199 198 201 202 201 200 200 200 201 201 202 204 205 205 204 205 206 207 208 209 209 209 210 212 214 215 215 216 217 218 218 218 218 219 220 220 221 223 224 226 227 229 228 228 228 226 229 234 236 239 235 230 233 237 236 236 236 234 231 230 229 228
196 197 198 198 198 198 198 200 201 202 204 206 207 207 208 209 208 208 208 208 208 206 204 201 199 199 199 200 201 203 202 201 201 201 202 203 204 205 206 206 206 207 209 210 211 212 212 212 213 214 215 216 217 217 219 220 221 221 221 222 223 223 225 226 227 228 229 230 230 231 232 229 231 236 238 240 238 231 233 237 238 239 238 235 232 230 230 230
195 196 197 197 197 197 198 199 199 200 202 204 206 207 208 209 208 207 207 207 207 207 207 206 204 203 202 201 202 203 203 202 201 202 203 204 205 206 206 207 208 208 210 211 212 214 215 216 217 217 217 217 218 219 220 222 224 224 225 225 225 227 228 229 230 231 231 232 233 234 235 232 232 238 239 241 241 234 233 237 238 240 239 237 236 234 233 232
195 195 196 197 197 197 197 198 198 199 201 203 205 206 208 209 209 208 207 208 208 207 206 206 206 206 205 204 204 206 205 204 203 202 203 204 206 207 208 208 208 209 210 211 213 214 215 216 217 218 219 220 220 221 222 225 227 227 227 227 228 229 231 232 233 234 234 234 234 236 239 235 233 238 240 241 243 237 234 235 237 239 239 239 240 238 237 237
195 195 196 197 197 197 198 197 197 199 200 202 205 206 207 208 208 208 208 209 209 208 207 206 206 206 206 206 206 208 208 207 205 204 205 206 206 207 209 210 210 210 210 211 213 214 215 215 216 217 218 219 220 221 223 225 227 228 228 229 230 231 233 234 235 236 236 236 236 237 240 238 232 236 240 241 243 241 236 234 234 238 241 241 241 241 242 241
195 196 196 197 197 198 198 198 198 199 200 201 204 206 207 208 208 208 208 209 209 209 208 208 208 207 207 207 208 209 211 210 208 207 207 208 209 208 209 210 211 212 212 213 214 214 215 216 217 218 218 219 220 221 223 225 227 228 229 231 232 233 234 235 235 236 237 237 237 237 241 241 235 234 240 242 242 241 239 235 233 237 241 241 241 243 245 244
195 196 196 197 197 198 198 199 199 199 201 202 204 206 207 207 208 208 209 210 210 209 209 209 209 209 209 209 209 211 212 213 211 210 209 210 210 210 210 210 211 212 212 214 216 216 217 217 218 219 220 221 222 223 225 226 228 229 230 232 233 234 235 236 236 237 237 238 238 238 241 244 239 233 238 242 242 242 241 238 234 236 240 242 243 245 247 247
195 196 197 197 197 197 197 199 200 202 203 204 205 206 206 206 207 208 209 211 211 210 210 210 209 210 212 212 211 212 214 214 214 213 212 212 212 212 212 211 211 211 211 213 214 216 217 217 218 219 221 222 222 224 226 227 229 230 231 233 234 235 236 237 237 238 238 238 238 239 241 246 244 235 235 242 244 242 241 240 237 237 240 243 243 244 245 247
196 196 197 198 198 198 198 198 200 202 204 205 207 207 207 207 207 208 209 210 211 211 211 211 211 211 213 213 213 213 215 216 216 215 214 214 214 214 214 212 211 211 211 212 213 214 216 217 218 219 221 222 223 225 226 227 229 230 231 233 235 236 236 237 237 238 239 239 239 240 241 246 246 239 235 240 244 243 240 240 241 239 240 242 242 242 243 245
196 197 197 199 200 200 200 201 201 202 203 205 208 208 208 209 209 210 210 210 212 213 212 212 212 213 214 215 216 216 216 217 217 217 217 216 216 215 215 215 214 213 213 213 215 215 216 217 218 219 221 222 223 225 227 228 229 230 232 233 234 236 236 236 237 237 239 240 240 241 241 244 246 243 239 239 241 242 241 241 242 241 241 241 242 243 243 243
196 197 198 200 201 201 202 204 205 205 206 206 207 209 209 210 210 210 210 211 214 214 213 214 214 214 215 216 217 218 219 220 219 220 220 219 219 219 218 218 217 216 215 215 216 216 216 217 218 220 221 222 223 225 226 228 229 230 232 232 233 234 235 236 237 238 240 241 241 242 241 243 246 247 247 243 239 239 240 240 242 242 243 243 243 244 244 245
196 197 199 200 202 202 203 204 206 208 209 209 209 209 210 212 211 209 208 211 214 215 214 215 215 215 215 217 217 218 219 221 222 223 223 222 223 222 221 221 220 219 218 217 216 216 216 217 218 219 221 222 224 225 227 229 230 232 232 233 234 235 236 237 239 240 241 242 243 243 243 244 245 248 250 247 241 239 239 240 241 242 244 245 246 246 246 246
196 197 200 201 202 203 203 204 206 207 209 211 212 211 212 212 210 209 210 211 213 214 214 215 215 215 216 217 218 219 219 220 221 223 225 225 225 225 224 224 223 222 221 219 217 217 217 218 219 220 222 223 225 226 228 229 230 231 231 232 234 235 237 239 240 241 241 242 242 242 243 243 244 246 249 250 246 242 240 239 240 242 243 245 246 247 247 247
198 198 200 201 202 203 204 205 206 208 210 211 213 214 214 211 208 209 211 212 213 214 214 215 215 215 216 216 218 219 220 221 222 222 224 226 228 229 230 229 227 226 224 222 221 219 219 219 219 221 223 225 227 229 229 230 231 231 231 232 233 234 236 237 238 239 240 240 240 241 242 243 244 246 249 251 249 245 243 241 240 240 242 244 246 247 248 249
200 201 201 201 203 204 205 206 207 209 211 212 214 215 213 211 211 213 213 212 213 215 216 215 215 215 216 216 217 219 220 221 222 224 225 226 228 229 231 232 232 232 230 228 226 223 222 221 220 221 223 225 228 230 231 232 234 234 235 235 236 237 238 239 240 240 241 242 242 242 244 244 245 246 248 251 251 248 245 243 242 241 240 241 244 245 247 248
203 203 204 204 205 206 206 207 209 210 211 213 215 215 212 210 212 213 213 213 213 215 217 216 216 216 217 217 218 219 220 221 222 223 225 226 228 228 229 231 232 233 234 233 231 228 226 225 224 224 225 227 229 232 233 234 235 236 237 237 239 240 240 240 241 242 242 243 243 243 243 243 244 246 247 251 252 251 247 244 243 242 242 242 243 243 245 246
208 207 207 207 207 207 207 208 209 210 212 214 214 213 212 212 213 212 213 214 215 217 218 218 218 218 219 219 219 220 221 222 223 224 224 226 228 229 230 231 232 233 233 232 231 229 228 228 228 227 228 230 231 233 235 235 235 236 236 237 238 240 240 240 242 242 243 244 244 243 243 242 243 245 246 249 251 252 250 246 243 242 242 243 244 244 245 246
209 209 209 210 210 209 209 210 210 211 212 213 212 211 212 213 214 214 214 214 216 218 220 220 219 219 220 220 221 222 223 223 224 225 226 227 228 229 230 231 233 234 234 233 231 230 229 229 229 228 228 231 233 234 235 235 236 237 237 237 238 239 240 240 241 242 243 245 245 244 243 242 242 243 245 247 249 251 251 249 245 243 243 243 244 245 247 247
208 208 208 210 211 212 213 213 213 214 214 213 212 212 213 214 214 214 215 216 217 218 220 221 221 221 221 221 221 222 223 225 225 226 227 228 230 231 231 232 233 233 235 234 231 230 229 230 231 231 230 231 232 233 234 236 237 239 239 240 240 242 242 243 243 243 244 245 246 245 244 241 241 242 243 245 248 251 252 251 248 245 244 244 245 246 247 248
210 209 209 209 210 212 214 215 215 215 216 215 214 215 215 215 215 215 216 217 218 219 220 221 221 222 223 222 223 223 223 224 225 226 227 228 229 232 232 233 235 235 235 234 232 231 230 230 231 233 232 232 232 233 235 237 239 239 240 241 242 243 244 244 244 243 244 245 245 245 244 241 239 241 241 243 246 249 251 251 251 249 247 246 247 247 248 249
210 212 212 210 211 213 215 218 219 218 216 215 214 215 215 215 216 216 217 218 219 220 220 221 222 222 223 223 224 224 225 225 226 226 227 228 229 231 232 232 234 234 235 235 235 234 233 233 233 234 235 234 234 235 236 238 239 239 240 240 240 241 242 243 244 243 243 244 244 245 244 240 237 239 240 241 245 248 250 251 252 251 249 248 248 248 249 250
206 209 213 212 213 214 214 217 220 220 217 216 216 216 215 216 217 217 218 219 220 220 221 222 223 224 224 224 225 225 225 226 226 227 227 228 228 229 231 231 231 232 233 234 235 235 236 236 235 235 236 237 236 236 238 239 239 239 239 240 241 242 242 243 245 244 244 244 243 245 245 240 238 240 242 243 244 247 249 251 251 251 250 248 248 248 249 250
204 207 211 212 213 215 214 216 220 221 219 218 219 219 218 218 219 219 220 220 221 221 221 222 223 224 225 226 227 227 227 227 227 226 226 227 227 228 230 230 230 231 233 234 235 236 238 239 238 236 235 236 236 236 236 236 237 238 238 239 240 241 242 243 244 244 244 244 244 245 245 242 241 242 243 244 245 247 249 250 251 251 251 250 249 249 250 250
208 209 211 213 214 215 214 215 219 221 220 221 221 221 221 221 221 221 222 222 223 222 222 223 224 225 226 228 229 229 229 229 228 227 226 226 227 227 229 230 230 230 232 233 235 236 237 239 241 240 237 234 233 234 233 233 236 238 238 239 241 243 244 245 246 246 246 246 246 247 247 244 243 244 245 246 247 247 249 251 252 254 254 254 253 253 253 252
210 212 212 214 216 216 213 212 216 220 221 222 223 223 223 224 223 224 224 224 224 224 224 224 224 226 227 228 230 230 230 230 230 229 228 228 228 228 229 230 230 230 230 231 233 234 235 237 240 242 243 239 236 236 236 237 240 241 242 243 245 247 248 249 249 248 249 250 249 248 247 246 244 244 245 246 248 249 251 253 254 255 256 256 257 258 257 257
212 213 214 216 218 218 215 213 215 218 220 222 223 224 225 225 225 225 225 225 225 225 225 225 225 226 227 228 230 231 232 232 231 230 230 229 229 230 230 230 231 231 230 231 232 233 234 236 238 241 244 244 241 239 237 237 239 240 241 242 243 245 246 248 249 248 248 250 248 244 243 244 243 243 245 247 250 253 254 255 255 256 257 257 259 261 262 262
213 216 217 220 221 220 217 216 216 217 219 221 222 224 225 225 225 226 226 227 227 227 227 227 226 227 227 228 230 232 233 234 233 232 231 231 231 231 231 231 232 232 231 231 232 233 234 236 238 240 243 245 244 243 241 240 240 240 240 240 241 242 243 244 245 245 245 247 245 240 242 242 241 244 247 250 252 255 256 257 257 258 259 260 262 264 265 266
213 215 216 218 221 220 219 218 218 218 219 220 221 222 223 224 225 226 227 228 228 229 229 229 229 229 229 230 232 234 235 235 235 235 234 233 233 233 233 233 233 233 234 233 233 234 235 236 237 239 241 243 244 244 244 243 242 242 242 242 243 244 245 246 246 246 247 248 245 243 244 243 241 244 248 252 255 257 259 261 261 262 264 265 266 267 267 267
213 214 213 213 215 216 216 217 218 219 220 221 222 223 223 223 224 226 227 229 230 230 230 229 229 230 231 232 234 235 236 237 238 238 238 237 236 236 236 236 235 235 236 236 235 235 236 237 238 239 240 241 242 244 244 244 244 244 243 243 244 245 246 246 247 247 249 249 247 247 248 246 244 247 251 254 258 261 263 265 266 267 268 267 267 267 267 267
214 215 214 213 213 212 212 214 215 217 219 220 222 222 222 223 225 226 228 230 231 232 232 232 232 232 233 234 235 236 238 238 239 239 239 239 238 237 237 238 237 237 238 238 238 238 237 238 238 239 240 241 242 244 245 245 245 244 243 243 244 245 246 247 248 249 251 252 251 251 251 249 247 251 254 256 259 261 263 265 267 267 267 265 265 266 268 270
213 215 215 215 214 213 212 213 213 215 217 219 220 221 221 222 224 226 228 229 230 231 232 233 233 234 235 235 236 238 239 239 239 239 239 239 238 237 237 237 237 236 237 238 239 240 240 240 239 240 241 242 242 244 245 245 245 244 244 245 247 248 249 250 250 251 253 254 254 254 253 252 252 253 254 256 257 258 260 262 263 264 265 266 266 268 269 271
Height
5698 5703 5708 5714 5718 5722 5726 5730 5733 5738 5742 5745 5748 5751 5755 5759 5762 5766 5769 5772 5775 5778 5781 5783 5786 5789 5791 5794 5796 5798 5800 5802 5804 5807 5810 5812 5814 5818 5821 5823 5826 5831 5835 5838 5841 5844 5847 5850 5853 5856 5859 5862 5864 5866 5868 5871 5873 5875 5877 5879 5880 5881 5883 5884 5886 5887 5888 5889 5890 5891 5893 5893 5894 5896 5896 5897 5897 5898 5898 5898 5898 5899 5899 5899 5900 5900 5900 5900
5694 5699 5704 5710 5715 5719 5724 5728 5730 5734 5740 5742 5745 5748 5752 5756 5759 5763 5766 5769 5772 5775 5778 5781 5784 5786 5788 5791 5793 5795 5797 5799 5801 5804 5807 5809 5812 5816 5819 5821 5823 5827 5833 5836 5839 5842 5845 5848 5852 5855 5858 5861 5863 5865 5867 5870 5872 5874 5876 5878 5879 5880 5881 5883 5885 5887 5888 5888 5889 5890 5892 5893 5894 5895 5895 5896 5897 5897 5898 5898 5898 5898 5899 5899 5899 5899 5899 5899
5690 5695 5700 5706 5712 5717 5722 5725 5728 5731 5736 5739 5742 5746 5749 5753 5757 5760 5763 5766 5769 5773 5776 5779 5781 5784 5786 5788 5790 5792 5794 5796 5799 5802 5804 5807 5810 5813 5816 5819 5821 5825 5830 5834 5836 5840 5843 5846 5849 5852 5856 5859 5861 5864 5866 5869 5871 5873 5875 5876 5877 5878 5881 5883 5884 5885 5887 5888 5888 5889 5891 5892 5893 5894 5895 5896 5896 5897 5897 5897 5897 5898 5898 5899 5899 5899 5899 5899
5686 5691 5697 5703 5708 5714 5718 5721 5723 5727 5733 5737 5740 5743 5746 5750 5754 5757 5760 5763 5767 5770 5773 5776 5779 5781 5783 5785 5787 5789 5791 5794 5797 5800 5802 5805 5808 5811 5814 5817 5820 5823 5828 5832 5835 5838 5841 5844 5847 5850 5853 5856 5859 5862 5865 5867 5870 5871 5873 5874 5876 5878 5880 5881 5883 5884 5885 5886 5887 5888 5889 5891 5892 5893 5894 5895 5896 5896 5897 5897 5897 5897 5897 5898 5898 5898 5898 5898
5682 5687 5693 5698 5704 5709 5712 5716 5719 5723 5729 5734 5738 5741 5744 5747 5751 5755 5758 5760 5764 5767 5771 5774 5776 5778 5780 5782 5784 5787 5789 5791 5795 5797 5800 5803 5805 5808 5811 5814 5820 5823 5827 5830 5833 5836 5839 5842 5846 5849 5852 5855 5858 5861 5864 5866 5868 5870 5871 5873 5875 5877 5879 5880 5882 5883 5884 5885 5886 5887 5888 5890 5891 5892 5893 5894 5895 5895 5896 5896 5897 5896 5896 5897 5898 5898 5898 5898
5678 5683 5689 5695 5700 5704 5709 5713 5716 5721 5726 5730 5735 5739 5741 5745 5748 5752 5755 5758 5761 5765 5768 5771 5773 5775 5777 5779 5782 5784 5787 5789 5792 5794 5797 5800 5802 5805 5807 5810 5817 5822 5826 5829 5830 5833 5837 5841 5844 5847 5851 5854 5857 5860 5863 5865 5867 5868 5870 5872 5874 5875 5877 5879 5881 5882 5883 5884 5885 5886 5887 5888 5890 5891 5892 5893 5894 5894 5895 5896 5896 5896 5896 5896 5897 5897 5897 5897
5674 5679 5686 5691 5696 5701 5706 5710 5714 5718 5722 5727 5732 5736 5739 5743 5746 5749 5752 5755 5759 5762 5765 5768 5770 5772 5774 5777 5779 5782 5784 5786 5789 5791 5795 5797 5799 5801 5804 5807 5813 5820 5825 5827 5829 5832 5835 5839 5843 5846 5850 5852 5855 5858 5861 5863 5865 5867 5869 5871 5872 5874 5875 5877 5879 5880 5882 5883 5884 5885 5886 5887 5888 5890 5891 5892 5893 5894 5894 5895 5895 5895 5895 5895 5896 5896 5896 5897
5670 5676 5682 5687 5693 5698 5702 5707 5711 5715 5719 5723 5728 5733 5737 5740 5744 5747 5750 5753 5756 5759 5762 5765 5767 5769 5771 5774 5776 5779 5781 5783 5785 5788 5792 5795 5796 5798 5801 5805 5811 5817 5823 5826 5828 5830 5834 5838 5842 5845 5848 5851 5854 5857 5859 5861 5863 5865 5867 5869 5870 5872 5874 5875 5877 5879 5880 5881 5882 5883 5884 5886 5887 5888 5890 5891 5892 5892 5893 5893 5894 5894 5894 5894 5895 5895 5895 5896
5667 5673 5678 5684 5689 5694 5699 5703 5708 5712 5716 5720 5724 5729 5734 5738 5741 5744 5747 5750 5753 5756 5759 5762 5764 5766 5769 5771 5774 5776 5778 5780 5782 5785 5789 5791 5794 5796 5799 5804 5809 5815 5820 5824 5827 5829 5832 5836 5840 5843 5846 5850 5852 5855 5857 5859 5861 5863 5865 5867 5869 5870 5872 5874 5876 5877 5878 5879 5880 5882 5883 5885 5886 5887 5889 5889 5890 5891 5892 5892 5893 5893 5893 5893 5893 5894 5894 5895
5663 5669 5675 5681 5686 5691 5695 5700 5705 5709 5713 5717 5721 5726 5731 5735 5739 5742 5745 5748 5751 5754 5757 5759 5761 5764 5766 5769 5771 5773 5775 5777 5779 5782 5786 5788 5791 5794 5798 5803 5807 5812 5817 5822 5826 5828 5830 5834 5838 5841 5844 5847 5850 5852 5854 5856 5859 5861 5863 5865 5867 5868 5870 5872 5874 5876 5877 5878 5879 5880 5882 5883 5885 5886 5887 5888 5888 5890 5890 5891 5891 5892 5892 5892 5892 5893 5893 5894
5660 5666 5672 5677 5683 5688 5692 5697 5702 5706 5710 5714 5718 5722 5727 5732 5736 5739 5742 5745 5748 5751 5754 5757 5759 5762 5764 5766 5769 5771 5773 5774 5776 5780 5783 5786 5789 5793 5797 5801 5805 5810 5815 5820 5824 5826 5829 5831 5835 5839 5842 5844 5847 5850 5852 5854 5857 5859 5861 5863 5865 5867 5868 5870 5872 5874 5875 5877 5878 5879 5880 5882 5883 5885 5886 5886 5887 5888 5889 5890 5890 5890 5891 5891 5891 5891 5892 5893
5655 5662 5668 5674 5679 5685 5690 5695 5699 5703 5707 5711 5716 5720 5724 5728 5732 5736 5739 5742 5746 5749 5752 5755 5757 5760 5762 5764 5767 5768 5770 5772 5775 5778 5781 5784 5787 5791 5795 5799 5804 5808 5813 5817 5821 5824 5827 5829 5833 5836 5839 5843 5845 5848 5850 5852 5855 5857 5859 5861 5863 5865 5867 5869 5870 5872 5874 5875 5876 5877 5878 5880 5882 5883 5884 5885 5885 5887 5887 5888 5888 5889 5889 5890 5890 5890 5891 5892
5651 5658 5665 5671 5676 5682 5687 5692 5697 5701 5705 5709 5713 5717 5721 5725 5729 5733 5736 5740 5743 5746 5749 5752 5755 5758 5760 5763 5765 5766 5767 5770 5773 5776 5779 5782 5786 5790 5794 5798 5802 5806 5811 5815 5818 5822 5825 5827 5830 5834 5837 5841 5843 5845 5848 5851 5853 5855 5857 5859 5861 5863 5865 5867 5869 5871 5872 5874 5875 5876 5877 5879 5879 5880 5882 5883 5883 5885 5886 5886 5887 5888 5888 5888 5889 5889 5890 5891
5648 5655 5661 5668 5674 5679 5685 5689 5694 5698 5702 5706 5710 5714 5718 5722 5725 5730 5734 5737 5740 5744 5747 5750 5753 5756 5759 5761 5763 5763 5766 5768 5771 5775 5778 5781 5785 5789 5793 5797 5801 5804 5808 5812 5816 5819 5822 5825 5828 5831 5835 5838 5841 5843 5846 5849 5851 5853 5855 5857 5859 5861 5864 5866 5868 5869 5870 5872 5873 5874 5876 5876 5876 5878 5881 5881 5882 5883 5884 5885 5886 5887 5887 5887 5888 5888 5889 5890
5644 5651 5658 5665 5671 5677 5682 5687 5691 5695 5699 5703 5707 5711 5715 5719 5722 5726 5730 5734 5738 5741 5744 5747 5751 5754 5757 5759 5760 5761 5764 5767 5770 5774 5777 5780 5784 5787 5791 5795 5799 5803 5806 5810 5813 5817 5820 5823 5826 5829 5833 5836 5839 5841 5844 5846 5849 5851 5853 5855 5857 5860 5863 5864 5865 5867 5868 5870 5871 5872 5874 5874 5874 5877 5879 5879 5880 5881 5882 5884 5884 5885 5886 5886 5887 5887 5888 5888
5642 5649 5655 5662 5668 5674 5679 5684 5688 5692 5696 5700 5704 5708 5712 5715 5719 5723 5727 5731 5734 5738 5741 5745 5748 5752 5755 5757 5758 5760 5763 5766 5770 5773 5776 5779 5782 5786 5790 5793 5797 5801 5804 5807 5811 5815 5818 5821 5824 5827 5831 5834 5836 5839 5842 5844 5846 5848 5850 5853 5857 5859 5861 5862 5863 5865 5867 5868 5869 5870 5872 5873 5873 5875 5876 5877 5878 5879 5881 5882 5883 5884 5884 5885 5886 5886 5887 5887
5639 5646 5653 5659 5665 5671 5676 5681 5685 5689 5693 5697 5701 5705 5709 5712 5716 5720 5724 5727 5731 5735 5738 5742 5746 5749 5752 5755 5757 5759 5763 5766 5769 5773 5776 5779 5781 5785 5788 5792 5795 5799 5802 5805 5809 5812 5816 5819 5822 5826 5829 5832 5834 5837 5839 5840 5843 5846 5849 5852 5856 5858 5859 5860 5862 5863 5864 5865 5867 5868 5870 5871 5871 5872 5874 5875 5876 5877 5879 5880 5881 5882 5882 5883 5884 5885 5885 5886
5636 5643 5650 5656 5662 5668 5673 5678 5682 5686 5690 5694 5698 5701 5705 5709 5713 5717 5721 5724 5728 5731 5734 5738 5742 5746 5749 5752 5755 5758 5762 5765 5768 5771 5774 5777 5780 5783 5786 5790 5793 5796 5800 5803 5806 5810 5813 5817 5820 5823 5826 5829 5832 5834 5837 5840 5844 5847 5850 5853 5855 5856 5857 5858 5859 5860 5861 5863 5864 5866 5868 5869 5869 5870 5872 5873 5874 5875 5877 5879 5879 5880 5881 5882 5883 5883 5884 5885
5634 5640 5647 5653 5659 5665 5670 5675 5679 5682 5686 5690 5694 5698 5702 5706 5710 5714 5718 5722 5725 5728 5732 5736 5740 5744 5747 5751 5753 5757 5760 5762 5766 5769 5773 5776 5779 5781 5784 5787 5791 5794 5797 5801 5805 5808 5811 5815 5817 5820 5824 5828 5831 5834 5837 5840 5843 5845 5847 5849 5851 5853 5854 5855 5856 5857 5858 5860 5862 5864 5866 5867 5867 5868 5869 5870 5872 5873 5875 5877 5878 5878 5879 5880 5881 5882 5882 5883
5631 5637 5644 5650 5656 5662 5667 5672 5675 5679 5683 5688 5693 5697 5700 5704 5708 5711 5716 5720 5724 5728 5733 5737 5740 5743 5746 5750 5752 5755 5758 5760 5764 5767 5771 5774 5777 5780 5783 5786 5789 5792 5795 5799 5803 5806 5810 5812 5816 5821 5825 5828 5830 5832 5835 5837 5839 5841 5843 5845 5848 5849 5851 5852 5853 5855 5857 5858 5860 5862 5863 5864 5865 5866 5866 5867 5869 5871 5873 5874 5876 5876 5877 5878 5879 5880 5881 5882
5628 5634 5640 5647 5653 5659 5664 5668 5673 5677 5682 5686 5691 5696 5701 5705 5709 5712 5715 5718 5722 5726 5730 5734 5738 5741 5744 5748 5751 5754 5757 5759 5762 5766 5769 5772 5775 5778 5780 5784 5787 5790 5793 5797 5800 5804 5807 5811 5816 5820 5822 5824 5827 5829 5832 5834 5836 5838 5841 5843 5845 5847 5849 5850 5851 5853 5855 5856 5858 5859 5861 5863 5863 5863 5864 5865 5868 5870 5870 5872 5873 5874 5875 5876 5877 5878 5879 5880
5625 5631 5637 5643 5649 5655 5660 5665 5670 5674 5679 5684 5689 5694 5699 5703 5707 5711 5715 5717 5720 5723 5725 5730 5734 5738 5742 5745 5748 5751 5755 5758 5761 5764 5767 5770 5773 5776 5779 5782 5785 5789 5792 5795 5798 5801 5804 5809 5813 5815 5817 5820 5823 5826 5828 5830 5833 5835 5837 5840 5842 5844 5846 5848 5849 5851 5852 5854 5855 5857 5858 5861 5861 5861 5861 5863 5866 5868 5868 5869 5871 5872 5873 5874 5875 5876 5876 5877
5622 5628 5634 5640 5645 5651 5656 5662 5667 5672 5677 5682 5687 5691 5695 5698 5701 5705 5710 5714 5718 5721 5724 5728 5731 5735 5739 5742 5745 5749 5752 5756 5759 5763 5766 5769 5771 5774 5778 5781 5784 5787 5790 5794 5797 5800 5804 5808 5810 5812 5815 5817 5820 5823 5826 5828 5830 5833 5835 5837 5839 5842 5843 5845 5847 5848 5850 5851 5852 5854 5855 5858 5859 5859 5860 5861 5863 5865 5865 5866 5868 5869 5871 5872 5872 5873 5874 5875
5619 5625 5631 5637 5642 5647 5653 5659 5664 5670 5675 5679 5683 5687 5691 5694 5697 5700 5704 5708 5713 5718 5722 5727 5730 5734 5737 5740 5743 5747 5750 5753 5757 5761 5764 5767 5770 5773 5776 5779 5782 5785 5789 5792 5795 5799 5802 5806 5808 5810 5813 5815 5817 5820 5823 5826 5828 5830 5832 5835 5837 5839 5840 5842 5844 5845 5847 5848 5850 5851 5852 5855 5857 5857 5858 5859 5860 5863 5863 5864 5866 5867 5868 5868 5869 5870 5872 5873
5616 5622 5628 5633 5638 5644 5650 5656 5661 5666 5671 5675 5679 5683 5687 5690 5693 5697 5700 5704 5708 5712 5716 5721 5727 5731 5734 5739 5742 5745 5748 5751 5754 5758 5762 5765 5768 5771 5774 5777 5780 5783 5787 5790 5793 5795 5798 5801 5804 5807 5810 5812 5815 5818 5820 5823 5825 5827 5830 5832 5834 5835 5837 5839 5840 5842 5844 5845 5847 5849 5849 5852 5855 5855 5855 5856 5857 5860 5861 5862 5863 5864 5865 5865 5866 5868 5869 5870
5612 5618 5624 5630 5636 5641 5646 5652 5658 5663 5667 5672 5676 5679 5682 5686 5689 5692 5696 5700 5703 5707 5712 5717 5721 5726 5731 5735 5739 5742 5745 5748 5752 5756 5759 5762 5765 5769 5772 5774 5777 5781 5784 5787 5789 5792 5795 5798 5801 5804 5806 5809 5811 5814 5817 5819 5821 5824 5827 5829 5830 5832 5834 5835 5837 5839 5840 5841 5843 5845 5845 5848 5852 5852 5852 5854 5855 5856 5858 5860 5861 5861 5862 5863 5863 5864 5866 5867
5609 5615 5621 5627 5633 5639 5645 5651 5655 5659 5664 5669 5672 5675 5678 5682 5685 5688 5692 5694 5697 5703 5708 5713 5718 5723 5727 5731 5735 5738 5741 5745 5749 5752 5756 5759 5762 5766 5768 5772 5775 5778 5781 5783 5786 5789 5793 5796 5798 5801 5803 5805 5808 5811 5814 5816 5818 5821 5824 5826 5827 5829 5830 5832 5833 5834 5836 5837 5839 5841 5842 5844 5848 5850 5850 5851 5852 5853 5855 5857 5859 5859 5859 5860 5861 5862 5863 5864
5607 5612 5618 5624 5630 5636 5642 5648 5652 5657 5661 5664 5667 5670 5673 5677 5680 5684 5686 5688 5693 5699 5704 5710 5716 5720 5724 5727 5731 5735 5739 5743 5746 5749 5753 5756 5759 5762 5765 5769 5772 5775 5778 5781 5784 5788 5791 5794 5796 5798 5800 5803 5807 5809 5811 5813 5815 5818 5821 5822 5824 5826 5827 5828 5830 5831 5832 5833 5835 5838 5840 5839 5843 5848 5849 5848 5849 5850 5852 5854 5856 5856 5856 5857 5858 5859 5860 5861
5604 5610 5615 5620 5626 5631 5637 5642 5648 5652 5656 5659 5662 5665 5668 5671 5674 5677 5680 5684 5691 5697 5702 5707 5712 5716 5720 5725 5729 5733 5737 5740 5743 5747 5751 5753 5756 5759 5762 5765 5768 5771 5774 5777 5781 5784 5787 5789 5792 5795 5797 5801 5803 5805 5807 5809 5811 5814 5816 5818 5820 5822 5823 5825 5826 5827 5828 5829 5831 5835 5836 5836 5838 5845 5846 5846 5847 5848 5850 5851 5852 5853 5854 5855 5856 5857 5857 5858
5601 5607 5612 5618 5623 5628 5632 5637 5641 5646 5650 5655 5658 5661 5664 5666 5668 5671 5675 5682 5689 5694 5699 5704 5709 5713 5717 5722 5726 5730 5733 5736 5740 5744 5746 5749 5753 5756 5759 5761 5764 5767 5770 5773 5776 5779 5782 5785 5788 5791 5794 5797 5799 5800 5803 5805 5807 5810 5812 5814 5816 5818 5820 5821 5822 5823 5824 5825 5829 5831 5833 5833 5834 5840 5844 5844 5844 5846 5846 5847 5848 5850 5851 5851 5852 5853 5854 5855
5598 5604 5609 5615 5620 5625 5630 5634 5638 5641 5646 5649 5652 5655 5658 5661 5664 5667 5674 5683 5688 5691 5696 5700 5706 5711 5715 5720 5724 5727 5730 5732 5736 5739 5742 5745 5748 5751 5754 5757 5760 5763 5766 5769 5772 5775 5778 5781 5784 5787 5790 5793 5795 5797 5799 5801 5804 5806 5808 5811 5813 5813 5815 5816 5817 5819 5819 5822 5826 5828 5830 5830 5830 5836 5842 5842 5842 5842 5843 5844 5845 5846 5847 5848 5849 5850 5851 5852
5596 5601 5606 5611 5615 5621 5626 5630 5635 5639 5641 5643 5646 5649 5653 5655 5658 5664 5675 5682 5684 5688 5694 5699 5704 5709 5713 5717 5720 5723 5726 5729 5732 5735 5738 5742 5744 5747 5750 5753 5757 5760 5762 5765 5768 5771 5774 5777 5780 5783 5786 5788 5790 5792 5794 5797 5800 5802 5804 5807 5807 5808 5810 5811 5813 5815 5816 5820 5823 5824 5826 5826 5828 5834 5837 5838 5839 5839 5839 5840 5841 5842 5843 5844 5845 5846 5847 5848
5592 5597 5602 5605 5610 5616 5620 5625 5630 5633 5637 5640 5641 5644 5648 5649 5654 5665 5675 5677 5680 5687 5694 5697 5701 5706 5709 5711 5714 5718 5722 5726 5729 5732 5735 5738 5740 5744 5747 5751 5754 5757 5760 5764 5766 5768 5770 5772 5776 5779 5782 5785 5787 5789 5792 5795 5797 5799 5801 5802 5803 5804 5806 5807 5810 5812 5814 5817 5819 5820 5821 5823 5828 5831 5831 5832 5835 5835 5837 5838 5838 5838 5839 5840 5841 5842 5843 5844
5587 5592 5596 5601 5606 5611 5615 5621 5624 5628 5632 5634 5636 5640 5641 5645 5657 5667 5670 5673 5679 5685 5689 5692 5697 5700 5702 5706 5711 5715 5718 5721 5724 5727 5731 5733 5736 5739 5743 5747 5751 5754 5758 5761 5762 5765 5767 5770 5774 5777 5780 5782 5784 5787 5789 5792 5793 5794 5796 5797 5799 5801 5803 5805 5807 5808 5811 5813 5814 5815 5816 5820 5826 5827 5826 5827 5830 5832 5834 5834 5834 5835 5835 5836 5836 5837 5838 5839
5583 5587 5591 5597 5602 5607 5612 5617 5620 5624 5626 5628 5632 5634 5636 5646 5659 5663 5666 5672 5678 5682 5685 5689 5692 5694 5697 5701 5706 5710 5713 5716 5720 5723 5726 5729 5732 5737 5740 5744 5748 5751 5754 5756 5758 5761 5764 5767 5771 5774 5776 5779 5781 5783 5785 5786 5787 5788 5790 5792 5794 5797 5798 5800 5801 5803 5805 5807 5808 5810 5813 5818 5823 5823 5822 5823 5826 5828 5829 5829 5830 5830 5831 5832 5832 5833 5834 5835
5580 5583 5588 5594 5599 5604 5608 5612 5616 5619 5621 5624 5626 5627 5636 5650 5658 5660 5665 5671 5675 5678 5680 5683 5685 5688 5691 5696 5700 5704 5708 5712 5716 5719 5722 5726 5729 5733 5737 5741 5745 5748 5751 5753 5755 5758 5760 5762 5766 5769 5771 5773 5775 5777 5779 5780 5782 5784 5786 5788 5792 5794 5794 5796 5797 5799 5801 5801 5804 5807 5811 5816 5819 5818 5818 5819 5821 5823 5824 5825 5825 5826 5827 5827 5828 5829 5829 5830
5577 5581 5586 5591 5596 5600 5604 5608 5612 5614 5617 5619 5621 5628 5641 5649 5651 5655 5662 5666 5669 5672 5674 5677 5681 5683 5688 5692 5696 5700 5704 5707 5711 5714 5718 5722 5724 5729 5734 5737 5740 5745 5748 5751 5752 5755 5757 5760 5763 5765 5766 5768 5770 5772 5774 5775 5777 5780 5782 5786 5789 5788 5789 5792 5793 5794 5796 5797 5800 5804 5807 5811 5813 5814 5816 5816 5816 5817 5819 5820 5821 5821 5822 5822 5823 5824 5825 5825
5575 5579 5583 5587 5592 5596 5600 5603 5606 5609 5612 5614 5620 5630 5640 5642 5645 5651 5657 5661 5665 5667 5669 5673 5677 5681 5686 5690 5693 5696 5699 5702 5706 5709 5713 5716 5720 5726 5730 5733 5737 5741 5744 5746 5748 5750 5753 5754 5757 5759 5761 5764 5765 5767 5768 5770 5773 5775 5778 5782 5782 5781 5784 5788 5788 5789 5792 5793 5795 5800 5803 5806 5809 5811 5813 5812 5811 5812 5813 5815 5816 5816 5817 5817 5818 5819 5820 5821
5572 5576 5579 5583 5588 5592 5595 5598 5601 5604 5605 5609 5618 5628 5633 5637 5642 5648 5652 5656 5659 5662 5665 5669 5673 5678 5682 5687 5690 5693 5695 5699 5703 5706 5710 5713 5717 5723 5727 5731 5734 5737 5740 5742 5743 5745 5748 5749 5750 5753 5756 5757 5759 5760 5763 5766 5769 5771 5773 5775 5776 5777 5780 5782 5783 5785 5788 5789 5791 5795 5797 5801 5805 5807 5808 5807 5806 5807 5808 5810 5811 5812 5812 5813 5813 5814 5814 5815
5568 5572 5575 5580 5584 5587 5591 5594 5595 5596 5600 5609 5619 5625 5629 5633 5638 5643 5646 5650 5653 5656 5660 5665 5670 5674 5678 5683 5686 5689 5692 5695 5699 5703 5706 5710 5715 5719 5724 5727 5730 5734 5736 5736 5738 5740 5742 5744 5746 5748 5750 5751 5753 5756 5760 5763 5765 5766 5768 5770 5772 5774 5776 5778 5780 5782 5784 5785 5787 5789 5791 5796 5801 5802 5803 5803 5803 5803 5803 5805 5806 5807 5808 5808 5809 5809 5809 5810
5564 5567 5571 5576 5580 5583 5586 5586 5588 5594 5602 5612 5617 5620 5624 5629 5634 5638 5641 5644 5648 5652 5657 5661 5665 5669 5673 5677 5681 5684 5688 5690 5694 5698 5701 5706 5711 5715 5720 5723 5726 5729 5730 5731 5733 5736 5738 5740 5741 5742 5744 5747 5750 5753 5756 5758 5759 5762 5764 5766 5769 5770 5772 5773 5774 5777 5780 5781 5782 5783 5785 5791 5796 5797 5798 5799 5799 5798 5798 5799 5801 5802 5803 5804 5804 5805 5805 5805
5561 5563 5567 5572 5575 5578 5581 5582 5586 5594 5601 5607 5611 5615 5620 5625 5629 5633 5636 5640 5643 5647 5652 5655 5659 5663 5667 5671 5675 5679 5682 5686 5689 5692 5696 5702 5707 5711 5714 5718 5720 5723 5725 5726 5730 5732 5734 5735 5736 5737 5740 5742 5745 5747 5749 5751 5754 5756 5758 5761 5763 5765 5767 5768 5769 5773 5776 5775 5777 5778 5779 5785 5791 5792 5793 5795 5794 5794 5794 5795 5797 5798 5799 5800 5800 5800 5800 5800
5556 5560 5563 5567 5571 5574 5577 5578 5581 5588 5595 5601 5606 5610 5615 5619 5623 5627 5631 5635 5639 5643 5647 5650 5654 5658 5662 5666 5670 5673 5677 5681 5684 5688 5694 5698 5702 5705 5707 5710 5714 5716 5717 5720 5723 5726 5728 5728 5729 5732 5734 5736 5738 5741 5743 5745 5748 5750 5753 5758 5759 5761 5764 5765 5766 5769 5769 5769 5773 5773 5773 5781 5788 5789 5789 5790 5790 5790 5790 5791 5792 5793 5794 5795 5795 5795 5795 5794
5550 5554 5557 5562 5566 5569 5571 5574 5578 5585 5593 5597 5600 5604 5609 5613 5617 5621 5626 5631 5635 5639 5642 5646 5650 5653 5657 5662 5665 5668 5672 5675 5678 5683 5688 5691 5695 5698 5700 5703 5707 5708 5711 5715 5718 5721 5721 5720 5721 5724 5725 5727 5730 5732 5736 5739 5743 5747 5751 5754 5755 5756 5758 5759 5761 5763 5762 5765 5769 5768 5770 5779 5785 5785 5784 5784 5785 5786 5786 5786 5787 5787 5788 5789 5789 5789 5789 5789
5545 5548 5552 5556 5559 5562 5567 5572 5577 5583 5589 5592 5595 5599 5604 5608 5612 5617 5622 5626 5630 5634 5638 5642 5645 5649 5653 5656 5659 5662 5665 5669 5674 5678 5681 5685 5689 5691 5693 5696 5699 5702 5706 5709 5711 5713 5713 5711 5713 5715 5716 5719 5722 5726 5733 5738 5741 5743 5746 5748 5750 5751 5753 5755 5756 5756 5758 5762 5764 5765 5771 5778 5780 5779 5779 5779 5780 5781 5781 5781 5781 5781 5781 5782 5783 5783 5783 5783
5539 5542 5546 5550 5552 5556 5563 5569 5573 5577 5582 5587 5591 5595 5599 5603 5607 5612 5615 5619 5623 5628 5632 5636 5640 5644 5646 5649 5653 5656 5660 5665 5668 5672 5676 5680 5683 5685 5688 5690 5692 5695 5698 5701 5703 5704 5703 5704 5707 5709 5710 5715 5721 5727 5733 5736 5736 5738 5741 5745 5746 5747 5749 5750 5749 5750 5756 5759 5759 5763 5770 5772 5773 5774 5773 5773 5774 5775 5776 5776 5775 5775 5775 5776 5776 5775 5776 5777
5535 5537 5541 5544 5547 5551 5558 5564 5568 5572 5578 5582 5586 5590 5594 5598 5602 5605 5609 5613 5618 5622 5626 5629 5633 5637 5641 5645 5648 5652 5656 5659 5662 5666 5671 5674 5677 5679 5681 5683 5685 5688 5691 5693 5694 5695 5696 5697 5701 5705 5707 5714 5720 5723 5725 5727 5728 5731 5734 5736 5738 5740 5741 5741 5742 5747 5753 5751 5751 5760 5766 5766 5766 5768 5767 5768 5768 5769 5769 5769 5769 5769 5770 5770 5770 5769 5770 5771
5529 5532 5536 5540 5542 5547 5554 5560 5565 5570 5573 5576 5580 5584 5588 5592 5596 5600 5604 5608 5612 5616 5620 5623 5628 5632 5637 5641 5644 5646 5649 5651 5655 5660 5664 5667 5671 5673 5675 5678 5679 5681 5684 5686 5687 5689 5690 5692 5698 5701 5703 5709 5713 5713 5716 5720 5721 5724 5726 5728 5730 5732 5732 5733 5737 5742 5744 5742 5747 5757 5760 5759 5761 5763 5763 5763 5763 5762 5763 5764 5764 5764 5764 5765 5765 5764 5764 5764
5524 5527 5531 5534 5537 5544 5552 5557 5560 5563 5565 5569 5572 5576 5581 5585 5590 5594 5599 5603 5606 5610 5614 5618 5623 5628 5632 5635 5637 5639 5642 5645 5650 5655 5659 5663 5665 5666 5669 5671 5673 5676 5678 5679 5681 5683 5684 5687 5693 5695 5698 5702 5704 5705 5710 5713 5713 5716 5719 5721 5724 5725 5726 5729 5732 5737 5737 5738 5746 5753 5752 5752 5757 5759 5760 5759 5757 5757 5758 5758 5758 5758 5759 5760 5759 5758 5757 5755
5519 5522 5526 5529 5533 5540 5545 5549 5552 5556 5559 5562 5566 5571 5576 5580 5584 5588 5593 5597 5600 5604 5609 5613 5618 5622 5625 5628 5631 5633 5638 5642 5647 5651 5654 5656 5658 5661 5663 5665 5668 5671 5672 5673 5675 5676 5678 5683 5687 5689 5691 5694 5695 5699 5703 5703 5705 5709 5711 5714 5716 5718 5721 5723 5728 5732 5732 5734 5743 5746 5743 5747 5754 5756 5756 5755 5753 5754 5753 5751 5751 5752 5753 5753 5752 5750 5749 5748
5515 5517 5521 5524 5529 5534 5538 5542 5546 5549 5552 5556 5561 5566 5570 5574 5579 5583 5587 5592 5596 5600 5604 5609 5612 5616 5619 5622 5625 5629 5634 5638 5641 5644 5647 5649 5652 5655 5657 5658 5662 5664 5665 5668 5669 5671 5674 5677 5681 5684 5683 5686 5691 5694 5694 5696 5698 5697 5699 5705 5710 5713 5717 5721 5725 5728 5728 5730 5737 5737 5736 5744 5751 5752 5752 5750 5749 5749 5746 5744 5744 5744 5744 5744 5744 5743 5742 5743
5510 5513 5517 5520 5523 5528 5532 5536 5540 5543 5546 5552 5557 5561 5564 5569 5573 5577 5581 5586 5590 5594 5598 5602 5606 5609 5612 5616 5621 5625 5628 5631 5634 5637 5639 5641 5645 5647 5648 5651 5654 5656 5659 5662 5663 5666 5669 5672 5676 5677 5676 5681 5687 5687 5688 5690 5684 5682 5691 5703 5708 5712 5716 5718 5719 5721 5723 5725 5727 5728 5734 5742 5744 5743 5744 5743 5743 5742 5740 5738 5736 5735 5736 5736 5737 5738 5737 5737